When you browse on this site, cookies collect data to enhance your experience and personalize the content and advertising you see.
Visit our Privacy Policy to learn more. By continuing to use the site, you agree to this use of cookies and data.
  • In United Kingdom
  • List of Countries
  • For 7 days
  • Water Temperature
  • Weather Map
  • Weather Widgets
  • user-avatar
    Login

    Hourly Weather La Paz

    Today, 22 November, Friday

    Time Temperature Precipitation Wind Pressure Humidity
    00:00 +21°C° 0 mm 1 mps 699 mmHg 97%
    01:00 +21°C° 0 mm 1 mps 699 mmHg 96%
    02:00 +20°C° 0 mm 0 mps 698 mmHg 96%
    03:00 +20°C° 0 mm 0 mps 698 mmHg 96%
    04:00 +19°C° 0 mm 0 mps 698 mmHg 96%
    05:00 +19°C° 0 mm 0 mps 699 mmHg 96%
    06:00 +19°C° 0 mm 0 mps 699 mmHg 96%
    07:00 +23°C° 0 mm 1 mps 700 mmHg 88%
    08:00 +25°C° 0 mm 1 mps 700 mmHg 80%
    09:00 +27°C° 0 mm 1 mps 701 mmHg 71%
    10:00 +28°C° 0 mm 1 mps 700 mmHg 66%
    11:00 +29°C° 0 mm 1 mps 700 mmHg 60%
    12:00 +30°C° 0 mm 1 mps 700 mmHg 55%
    13:00 +30°C° 0.1 mm 1 mps 699 mmHg 56%
    14:00 +30°C° 0.1 mm 1 mps 698 mmHg 57%
    15:00 +30°C° 0.1 mm 1 mps 698 mmHg 58%
    16:00 +28°C° 0 mm 1 mps 698 mmHg 67%
    17:00 +26°C° 0 mm 1 mps 697 mmHg 76%
    18:00 +22°C° 0 mm 0 mps 697 mmHg 86%
    19:00 +21°C° 0 mm 0 mps 698 mmHg 88%
    20:00 +21°C° 0 mm 0 mps 699 mmHg 91%
    21:00 +20°C° 0 mm 0 mps 699 mmHg 93%
    22:00 +20°C° 0 mm 0 mps 699 mmHg 94%
    23:00 +20°C° 0 mm 0 mps 698 mmHg 94%

    Tomorrow, 23 November, Saturday

    Time Temperature Precipitation Wind Pressure Humidity
    00:00 +19°C° 0 mm 0 mps 698 mmHg 95%
    01:00 +21°C° 0 mm 1 mps 698 mmHg 96%
    02:00 +21°C° 0 mm 1 mps 698 mmHg 96%
    03:00 +21°C° 0 mm 1 mps 697 mmHg 97%
    04:00 +21°C° 0 mm 1 mps 698 mmHg 97%
    05:00 +21°C° 0 mm 1 mps 698 mmHg 96%
    06:00 +21°C° 0 mm 1 mps 698 mmHg 96%
    07:00 +23°C° 0 mm 1 mps 699 mmHg 90%
    08:00 +24°C° 0 mm 1 mps 700 mmHg 83%
    09:00 +26°C° 0 mm 1 mps 701 mmHg 77%
    10:00 +27°C° 0 mm 1 mps 700 mmHg 71%
    11:00 +29°C° 0 mm 1 mps 700 mmHg 64%
    12:00 +30°C° 0 mm 2 mps 700 mmHg 58%
    13:00 +30°C° 0.1 mm 1 mps 699 mmHg 59%
    14:00 +30°C° 0.1 mm 1 mps 698 mmHg 59%
    15:00 +30°C° 0.1 mm 1 mps 698 mmHg 60%
    16:00 +28°C° 0.1 mm 1 mps 698 mmHg 70%
    17:00 +26°C° 0.1 mm 1 mps 698 mmHg 80%
    18:00 +24°C° 0.1 mm 1 mps 698 mmHg 90%
    19:00 +23°C° 0 mm 1 mps 698 mmHg 92%
    20:00 +23°C° 0 mm 1 mps 699 mmHg 94%
    21:00 +22°C° 0 mm 1 mps 699 mmHg 96%
    22:00 +22°C° 0 mm 1 mps 699 mmHg 96%
    23:00 +22°C° 0 mm 1 mps 699 mmHg 97%

    Day after tomorrow, 24 November, Sunday

    Time Temperature Precipitation Wind Pressure Humidity
    00:00 +22°C° 0 mm 1 mps 699 mmHg 97%
    01:00 +22°C° 0 mm 1 mps 698 mmHg 97%
    02:00 +22°C° 0 mm 1 mps 698 mmHg 97%
    03:00 +22°C° 0 mm 1 mps 698 mmHg 96%
    04:00 +22°C° 0 mm 1 mps 698 mmHg 97%
    05:00 +22°C° 0 mm 1 mps 698 mmHg 97%
    06:00 +21°C° 0 mm 1 mps 699 mmHg 97%
    07:00 +23°C° 0 mm 2 mps 699 mmHg 90%
    08:00 +24°C° 0 mm 2 mps 700 mmHg 83%
    09:00 +26°C° 0 mm 2 mps 700 mmHg 76%
    10:00 +27°C° 0 mm 2 mps 700 mmHg 68%
    11:00 +29°C° 0 mm 2 mps 699 mmHg 60%
    12:00 +30°C° 0 mm 3 mps 699 mmHg 52%
    13:00 +30°C° 0 mm 3 mps 698 mmHg 53%
    14:00 +30°C° 0 mm 3 mps 698 mmHg 53%
    15:00 +30°C° 0 mm 3 mps 697 mmHg 53%
    16:00 +27°C° 0 mm 2 mps 697 mmHg 63%
    17:00 +25°C° 0 mm 2 mps 697 mmHg 72%
    18:00 +23°C° 0 mm 2 mps 697 mmHg 82%
    19:00 +23°C° 0 mm 1 mps 697 mmHg 86%
    20:00 +22°C° 0 mm 1 mps 698 mmHg 91%
    21:00 +21°C° 0 mm 1 mps 698 mmHg 95%
    22:00 +21°C° 0 mm 1 mps 698 mmHg 96%
    23:00 +21°C° 0 mm 1 mps 698 mmHg 96%

    25 November, Monday

    Time Temperature Precipitation Wind Pressure Humidity
    00:00 +21°C° 0 mm 1 mps 698 mmHg 97%
    01:00 +21°C° 0 mm 1 mps 697 mmHg 97%
    02:00 +21°C° 0 mm 1 mps 697 mmHg 96%
    03:00 +22°C° 0 mm 1 mps 697 mmHg 96%
    04:00 +22°C° 0 mm 1 mps 697 mmHg 96%
    05:00 +22°C° 0 mm 1 mps 697 mmHg 96%
    06:00 +22°C° 0 mm 1 mps 697 mmHg 96%
    07:00 +23°C° 0 mm 2 mps 698 mmHg 89%
    08:00 +25°C° 0 mm 2 mps 698 mmHg 82%
    09:00 +26°C° 0 mm 2 mps 699 mmHg 74%
    10:00 +27°C° 0 mm 2 mps 698 mmHg 70%
    11:00 +29°C° 0 mm 2 mps 698 mmHg 65%
    12:00 +30°C° 0 mm 2 mps 698 mmHg 60%
    13:00 +30°C° 0.1 mm 2 mps 697 mmHg 61%
    14:00 +30°C° 0.1 mm 2 mps 696 mmHg 62%
    15:00 +29°C° 0.1 mm 2 mps 696 mmHg 63%
    16:00 +27°C° 0.2 mm 2 mps 696 mmHg 73%
    17:00 +25°C° 0.2 mm 1 mps 696 mmHg 83%
    18:00 +23°C° 0.2 mm 1 mps 696 mmHg 93%
    19:00 +23°C° 0.1 mm 1 mps 696 mmHg 94%
    20:00 +23°C° 0.1 mm 1 mps 697 mmHg 96%
    21:00 +22°C° 0.1 mm 1 mps 697 mmHg 97%
    22:00 +22°C° 0 mm 1 mps 697 mmHg 97%
    23:00 +22°C° 0 mm 1 mps 697 mmHg 97%

    26 November, Tuesday

    Time Temperature Precipitation Wind Pressure Humidity
    00:00 +22°C° 0 mm 1 mps 697 mmHg 98%
    01:00 +22°C° 0 mm 1 mps 697 mmHg 97%
    02:00 +22°C° 0 mm 1 mps 697 mmHg 97%
    03:00 +22°C° 0 mm 1 mps 697 mmHg 97%
    04:00 +22°C° 0 mm 1 mps 697 mmHg 97%
    05:00 +22°C° 0 mm 1 mps 697 mmHg 97%
    06:00 +21°C° 0 mm 1 mps 697 mmHg 97%
    07:00 +23°C° 0 mm 1 mps 698 mmHg 90%
    08:00 +24°C° 0 mm 1 mps 698 mmHg 84%
    09:00 +26°C° 0 mm 1 mps 699 mmHg 77%
    10:00 +28°C° 0 mm 1 mps 699 mmHg 64%
    11:00 +30°C° 0 mm 2 mps 698 mmHg 52%
    12:00 +31°C° 0 mm 2 mps 698 mmHg 39%
    13:00 +31°C° 0 mm 2 mps 698 mmHg 39%
    14:00 +31°C° 0 mm 2 mps 697 mmHg 39%
    15:00 +31°C° 0 mm 2 mps 697 mmHg 39%
    16:00 +28°C° 0 mm 1 mps 696 mmHg 48%
    17:00 +26°C° 0 mm 1 mps 696 mmHg 58%
    18:00 +23°C° 0 mm 1 mps 696 mmHg 67%
    19:00 +22°C° 0 mm 1 mps 697 mmHg 70%
    20:00 +22°C° 0 mm 1 mps 697 mmHg 73%
    21:00 +21°C° 0 mm 1 mps 698 mmHg 76%
    22:00 +21°C° 0 mm 1 mps 698 mmHg 78%
    23:00 +21°C° 0 mm 1 mps 697 mmHg 79%

    27 November, Wednesday

    Time Temperature Precipitation Wind Pressure Humidity
    00:00 +20°C° 0 mm 1 mps 697 mmHg 81%
    01:00 +20°C° 0 mm 1 mps 697 mmHg 82%
    02:00 +20°C° 0 mm 1 mps 697 mmHg 83%
    03:00 +20°C° 0 mm 1 mps 697 mmHg 85%
    04:00 +20°C° 0 mm 1 mps 697 mmHg 87%
    05:00 +20°C° 0 mm 1 mps 698 mmHg 89%
    06:00 +20°C° 0 mm 1 mps 698 mmHg 91%
    07:00 +22°C° 0 mm 1 mps 699 mmHg 82%
    08:00 +25°C° 0 mm 1 mps 700 mmHg 73%
    09:00 +27°C° 0 mm 2 mps 700 mmHg 64%
    10:00 +28°C° 0 mm 2 mps 700 mmHg 61%
    11:00 +29°C° 0 mm 2 mps 700 mmHg 58%
    12:00 +30°C° 0 mm 2 mps 699 mmHg 55%
    13:00 +30°C° 0 mm 2 mps 699 mmHg 56%
    14:00 +30°C° 0 mm 2 mps 698 mmHg 58%
    15:00 +29°C° 0 mm 2 mps 698 mmHg 59%
    16:00 +28°C° 0 mm 2 mps 698 mmHg 66%
    17:00 +26°C° 0 mm 2 mps 698 mmHg 74%
    18:00 +24°C° 0 mm 2 mps 698 mmHg 82%
    19:00 +24°C° 0 mm 2 mps 698 mmHg 85%
    20:00 +23°C° 0 mm 2 mps 699 mmHg 88%
    21:00 +21°C° 0 mm 2 mps 699 mmHg 91%
    22:00 +21°C° 0 mm 2 mps 699 mmHg 93%
    23:00 +21°C° 0 mm 2 mps 699 mmHg 95%
    Show more